User: anonymous   Login
Location: Boursonne
(49.2024°N, 3.0468°E)
Time: 19:33:36
(UTC+00:00)
Language:

Cosmos 1354 Rocket - Orbit

View from above orbital plane
View from above orbital plane
View from above satellite
View from above satellite

Ground track
Ground track

The orbit data is extracted from the following two-line orbital elements,

1 13149U 82037B   21335.52886273  .00000080  00000-0  37104-4 0  9990
2 13149  74.0396 148.4102 0013925 310.4253  49.5684 14.35423427 70915
Epoch (UTC): 01 December 2021 12:41:33
Eccentricity: 0.0013925
inclination: 74.0396°
perigee height: 764 km
apogee height: 783 km
right ascension of ascending node: 148.4102°
argument of perigee: 310.4253°
revolutions per day: 14.35423427
mean anomaly at epoch: 49.5684°
orbit number at epoch: 7091

The dashed part of the orbit path shows where the satellite is in the earth's shadow,  

DLR